Stations météo

Publicité
Roma Fiumicino, Italie (16242): Température de l'air & dewpoint: 19.06.2018 01:00:00 - 25.06.2018 01:00:00 (CEST)Roma Fiumicino, Italie (16242): Vitesse du vent: 19.06.2018 01:00:00 - 25.06.2018 01:00:00 (CEST)Roma Fiumicino, Italie (16242): Direction du vent: 19.06.2018 01:00:00 - 25.06.2018 01:00:00 (CEST)Roma Fiumicino, Italie (16242): reduced air pressure: 19.06.2018 01:00:00 - 25.06.2018 01:00:00 (CEST)Roma Fiumicino, Italie (16242): visibility: 19.06.2018 01:00:00 - 25.06.2018 01:00:00 (CEST)
Date & Time tt [°C] td [°C] ff [km/h] ff [knt] dd ppp [hPa] vv [km]
25.06.2018 01:00:00 18,0 15,0 8 4 NE - 10
25.06.2018 00:00:00 21,0 16,0 9 5 ESE - 10
24.06.2018 23:00:00 21,6 16,0 9 5 ENE 1015,7 10
24.06.2018 22:00:00 22,0 16,0 5 3 N - 10
24.06.2018 21:00:00 22,0 16,0 5 3 W - 10
24.06.2018 20:00:00 23,5 16,3 15 8 W 1014,9 10
24.06.2018 19:00:00 24,0 16,0 16 9 WSW - 10
24.06.2018 18:00:00 24,0 16,0 22 12 WSW - 10
24.06.2018 17:00:00 25,2 15,4 26 14 SW 1015,5 10
24.06.2018 16:00:00 26,0 15,0 22 12 SW - 10
24.06.2018 15:00:00 25,0 14,0 18 10 SSW - 10
24.06.2018 14:00:00 25,1 15,0 22 12 SSW 1016,3 10
24.06.2018 13:00:00 26,0 15,0 24 13 S - 10
24.06.2018 12:00:00 26,0 15,0 18 10 S - 10
24.06.2018 11:00:00 25,9 15,4 11 6 SE 1016,6 10
24.06.2018 10:00:00 24,0 11,0 13 7 E - 10
24.06.2018 09:00:00 22,0 10,0 22 12 ENE - 10
24.06.2018 08:00:00 20,0 8,6 16 9 NE 1016,3 10
24.06.2018 07:00:00 17,0 9,0 11 6 NNE - 10
24.06.2018 06:00:00 15,0 9,0 11 6 NNE - 10
24.06.2018 05:00:00 15,6 9,3 9 5 N 1015,8 10
24.06.2018 04:00:00 17,0 10,0 9 5 NE - 10
24.06.2018 03:00:00 18,0 11,0 5 3 - - 10
24.06.2018 02:00:00 18,0 12,3 8 4 NNE 1016,5 10
24.06.2018 01:00:00 19,0 16,0 9 5 N - 10
24.06.2018 00:00:00 19,0 16,0 8 4 N - 10
23.06.2018 23:00:00 20,0 15,6 4 2 NNW 1016,6 10
23.06.2018 22:00:00 21,0 15,0 5 3 NNE - 10
23.06.2018 21:00:00 23,0 16,0 5 3 NNW - 10
23.06.2018 20:00:00 23,4 15,1 11 6 NNW 1015,3 10
23.06.2018 19:00:00 25,0 15,0 15 8 W - 10
23.06.2018 18:00:00 27,0 15,0 9 5 WNW - 10
23.06.2018 17:00:00 26,2 13,4 8 4 W 1015,5 10
23.06.2018 16:00:00 25,0 15,0 8 4 - - 10
23.06.2018 15:00:00 24,0 16,0 15 8 ENE - 10
23.06.2018 14:00:00 26,4 15,5 5 3 - 1016,1 10
23.06.2018 13:00:00 26,0 14,0 9 5 NE - 10
23.06.2018 12:00:00 26,0 14,0 13 7 W - 10
23.06.2018 11:00:00 25,7 17,6 13 7 NNW 1015,8 10
23.06.2018 10:00:00 26,0 18,0 9 5 - - 10
23.06.2018 09:00:00 25,0 16,0 15 8 NE - 10
23.06.2018 08:00:00 23,2 16,0 15 8 NE 1015,1 10
23.06.2018 07:00:00 21,0 18,0 8 4 NNE - 10
23.06.2018 06:00:00 21,0 18,0 9 5 NE - 10
23.06.2018 05:00:00 20,5 18,6 11 6 NNE 1014,0 10
23.06.2018 04:00:00 21,0 20,0 9 5 NNE - 10
23.06.2018 03:00:00 21,0 20,0 8 4 NE - 10
23.06.2018 02:00:00 22,7 21,0 8 4 E 1013,7 10
23.06.2018 01:00:00 23,0 21,0 5 3 - - 10
23.06.2018 00:00:00 23,0 21,0 5 3 - - 10
22.06.2018 23:00:00 24,1 21,5 8 4 SE 1013,5 10
22.06.2018 22:00:00 25,0 22,0 9 5 SSE - 10
22.06.2018 21:00:00 25,0 21,0 9 5 S - 10
22.06.2018 20:00:00 25,4 21,0 11 6 S 1012,9 10
22.06.2018 19:00:00 26,0 21,0 15 8 S - 10
22.06.2018 18:00:00 26,0 19,0 18 10 SSW - 10
22.06.2018 17:00:00 27,3 20,7 21 11 S 1012,2 10
22.06.2018 16:00:00 28,0 21,0 18 10 SSW - 10
22.06.2018 15:00:00 27,0 20,0 21 11 S - 10
22.06.2018 14:00:00 27,6 18,8 18 10 S 1013,7 10
22.06.2018 13:00:00 27,0 20,0 18 10 S - 10
22.06.2018 12:00:00 27,0 20,0 16 9 S - 10
22.06.2018 11:00:00 27,3 19,5 13 7 S 1014,3 10
22.06.2018 10:00:00 26,0 20,0 11 6 SSW - 10
22.06.2018 09:00:00 26,0 21,0 9 5 S - 10
22.06.2018 08:00:00 23,9 21,4 9 5 SE 1014,6 10
22.06.2018 07:00:00 22,0 20,0 5 3 - - 8
22.06.2018 06:00:00 20,0 20,0 8 4 E - 8
22.06.2018 05:00:00 20,5 19,5 5 3 - 1014,7 10
22.06.2018 04:00:00 21,0 20,0 4 2 E - 10
22.06.2018 03:00:00 22,0 21,0 5 3 SSE - 10
22.06.2018 02:00:00 21,8 20,5 8 4 E 1015,4 10
22.06.2018 01:00:00 22,0 21,0 5 3 - - 10
22.06.2018 00:00:00 23,0 21,0 4 2 - - 10
21.06.2018 23:00:00 22,7 20,6 8 4 W 1016,2 10
21.06.2018 22:00:00 23,0 21,0 4 2 WNW - 10
21.06.2018 21:00:00 24,0 21,0 8 4 W - 10
21.06.2018 20:00:00 25,0 21,0 11 6 WNW 1015,7 10
21.06.2018 19:00:00 26,0 21,0 13 7 W - 10
21.06.2018 18:00:00 26,0 19,0 16 9 W - 10
21.06.2018 17:00:00 25,9 18,7 18 10 W 1015,8 10
21.06.2018 16:00:00 27,0 18,0 22 12 W - 10
21.06.2018 15:00:00 28,0 19,0 22 12 WSW - 10
21.06.2018 14:00:00 27,4 17,5 21 11 W 1016,7 10
21.06.2018 13:00:00 27,0 18,0 21 11 W - 10
21.06.2018 12:00:00 27,0 16,0 16 9 W - 10
21.06.2018 11:00:00 26,8 17,1 15 8 W 1017,6 10
21.06.2018 10:00:00 26,0 17,0 5 3 - - 10
21.06.2018 09:00:00 25,0 17,0 4 2 - - 10
21.06.2018 08:00:00 22,8 17,5 2 1 - 1018,2 10
21.06.2018 07:00:00 21,0 18,0 4 2 NE - 10
21.06.2018 06:00:00 19,0 17,0 5 3 ENE - 10
21.06.2018 05:00:00 18,7 17,1 4 2 NNW 1017,8 10
21.06.2018 04:00:00 19,0 17,0 4 2 N - 10
21.06.2018 03:00:00 19,0 17,0 2 1 - - 10
21.06.2018 02:00:00 19,8 17,5 4 2 - 1018,1 10
21.06.2018 01:00:00 21,0 18,0 9 5 NE - 10
21.06.2018 00:00:00 23,0 18,0 11 6 SE - 10
20.06.2018 23:00:00 22,8 17,7 16 9 SSE 1019,0 10
20.06.2018 22:00:00 23,0 18,0 21 11 SSE - 10
20.06.2018 21:00:00 26,0 19,0 5 3 - - 10
20.06.2018 20:00:00 25,3 19,9 13 7 W 1017,5 10
20.06.2018 19:00:00 27,0 18,0 18 10 W - 10
20.06.2018 18:00:00 27,0 18,0 18 10 W - 10
20.06.2018 17:00:00 28,1 16,8 21 11 W 1017,0 10
20.06.2018 16:00:00 28,0 17,0 22 12 W - 10
20.06.2018 15:00:00 29,0 16,0 22 12 WSW - 10
20.06.2018 14:00:00 28,8 14,8 22 12 SW 1018,1 10
20.06.2018 13:00:00 29,0 14,0 21 11 SW - 10
20.06.2018 12:00:00 28,0 14,0 15 8 WSW - 10
20.06.2018 11:00:00 28,5 14,5 15 8 W - 10
20.06.2018 10:00:00 28,0 14,0 5 3 - - 10
20.06.2018 09:00:00 26,0 13,0 8 4 NNE - 10
20.06.2018 08:00:00 24,8 13,6 8 4 N 1018,3 10
20.06.2018 07:00:00 22,0 14,0 9 5 NE - 10
20.06.2018 06:00:00 21,0 14,0 8 4 NE - 10
20.06.2018 05:00:00 21,3 14,0 4 2 - 1017,3 10
20.06.2018 04:00:00 21,0 15,0 4 2 ENE - 10
20.06.2018 03:00:00 22,0 16,0 8 4 ENE - 10
20.06.2018 02:00:00 21,5 19,3 8 4 E 1016,8 10
20.06.2018 01:00:00 22,0 20,0 9 5 E - 10
20.06.2018 00:00:00 23,0 20,0 11 6 E - 10
19.06.2018 23:00:00 23,8 21,3 11 6 SE 1016,5 10
19.06.2018 22:00:00 24,0 22,0 9 5 SE - 10
19.06.2018 21:00:00 25,0 20,0 11 6 SSE - 10
19.06.2018 20:00:00 26,9 20,5 4 2 - 1015,0 10
19.06.2018 19:00:00 27,0 18,0 8 4 WSW - 10
19.06.2018 18:00:00 27,0 18,0 9 5 SW - 10
19.06.2018 17:00:00 27,3 19,7 11 6 W 1014,8 10
19.06.2018 16:00:00 31,0 14,0 18 10 SSE - 10
19.06.2018 15:00:00 32,0 13,0 15 8 E - 10
19.06.2018 14:00:00 32,1 13,4 11 6 NNE 1015,4 10
19.06.2018 13:00:00 32,0 13,0 18 10 NE - 10
19.06.2018 12:00:00 31,0 12,0 18 10 ENE - 10
19.06.2018 11:00:00 30,6 12,3 18 10 NNE 1015,8 10
19.06.2018 10:00:00 29,0 13,0 18 10 NE - 10
19.06.2018 09:00:00 27,0 13,0 21 11 NE - 10
19.06.2018 08:00:00 24,6 14,0 15 8 NE 1015,8 10
19.06.2018 07:00:00 22,0 14,0 13 7 NE - 10
19.06.2018 06:00:00 19,0 13,0 9 5 NNE - 10
19.06.2018 05:00:00 18,7 13,3 4 2 NNE 1014,9 30
19.06.2018 04:00:00 20,0 14,0 8 4 ENE - 10
19.06.2018 03:00:00 20,0 14,0 11 6 N - 10
19.06.2018 02:00:00 20,5 14,7 11 6 NNE 1014,9 30
19.06.2018 01:00:00 21,0 17,0 11 6 NNE - 10

tt = Température de l'air
td = dewpoint
ff = Vitesse du vent
dd = Direction du vent
ppp = reduced air pressure
vv = visibility

stations d'obs. à proximité